Regional Weather Roundup
Issued by NWS Sioux Falls, SD

Home | Current Version | Previous Version | Graphics & Text | Print | Product List | Glossary Off
Versions: 1 2 3 4 5 6 7 8 9 10 11 12 13 14 15 16 17 18 19 20 21 22 23 24 25 26 27 28 29 30 31 32 33 34 35 36 37 38 39 40 41 42 43 44 45 46 47 48 49 50

000
ASUS43 KFSD 191502
RWRFSD

WEATHER ROUNDUP FOR SE SOUTH DAKOTA/SW MINNESOTA/NW IOWA
NATIONAL WEATHER SERVICE SIOUX FALLS SD
1000 AM CDT SUN APR 19 2015

NOTE: "FAIR" INDICATES FEW OR NO CLOUDS BELOW 12,000 FEET WITH NO
SIGNIFICANT WEATHER AND OR OBSTRUCTIONS TO VISIBILITY.


SDZ038>040-050-052>070-191600-
SOUTHEAST SOUTH DAKOTA

CITY           SKY/WX    TMP DP  RH WIND       PRES   REMARKS
BROOKINGS      CLOUDY    48  45  87 NW23G35   29.75S
CHAMBERLAIN    NOT AVBL
HURON          PTSUNNY   48  40  73 NW22      29.84R
MADISON        CLOUDY    45  45 100 NW26G36   29.77R
MITCHELL       CLOUDY    48  42  80 NW21G36   29.85R
SIOUX FALLS    CLOUDY    51  46  83 NW18      29.76R
WINNER         FAIR      48  31  51 NW29G38   29.94S
YANKTON        CLOUDY    48  43  81 NW26G37   29.80R
$$

MNZ071-072-080-081-089-090-097-098-191600-
SOUTHWEST MINNESOTA

CITY           SKY/WX    TMP DP  RH WIND       PRES   REMARKS
FAIRMONT       CLOUDY    55  46  71 SW6       29.69F
JACKSON        CLOUDY    54  54 100 NW9G20    29.70S FOG
LUVERNE        CLOUDY    54  46  76 N20       29.74R
MARSHALL       CLOUDY    52  43  71 NW16G22   29.71S
MONTEVIDEO     CLOUDY    52  52 100 N9        29.71R
PIPESTONE      CLOUDY    52  46  82 N18G28    29.73S
REDWOOD FALLS  CLOUDY    53  49  86 NW15G23   29.68F
TRACY          PTSUNNY   54  50  86 NW18      29.71F
WORTHINGTON    CLOUDY    52  46  82 NW16      29.71S
$$

IAZ001>003-012>014-020>022-031-032-NEZ013-014-SDZ071-191600-
NORTHWEST IOWA

CITY           SKY/WX    TMP DP  RH WIND       PRES   REMARKS
DENISON        LGT RAIN  55  55 100 CALM      29.70S
ESTHERVILLE    CLOUDY    56  54  93 W7        29.69F
SIOUX CITY     CLOUDY    53  47  79 N18       29.75R
SPENCER        CLOUDY    57  54  89 NW13      29.70S FOG
$$

ABBREVIATIONS USED IN REMARKS
   TC - TEMPERATURE IN CELSIUS
  WCI - WIND CHILL INDEX
   HX - HEAT INDEX
  VSB - VISIBILITY




USA.gov is the U.S. government's official web portal to all federal, state and local government web resources and services.